Helicity
216 169 76 103 143 158 197 250 341 378 417 250 218 122 122 200 157 172 160 166 147 126
203 123 72 88 134 207 251 326 421 429 386 381 29 140 169 192 182 171 166 153 126 121
144 91 84 147 239 293 368 387 318 277 265 42 78 126 184 199 178 173 160 136 119 112
127 124 160 238 290 385 444 418 220 158 110 24 136 172 176 169 179 162 126 115 118 117
207 202 217 284 371 304 379 172 173 129 151 124 128 148 161 161 156 133 120 113 144 129
247 230 349 383 282 214 142 128 139 228 148 146 162 158 163 147 123 131 137 139 151 149
387 463 430 208 147 253 338 144 210 150 192 154 168 182 151 139 133 138 149 157 164 167
535 483 182 207 308 358 156 141 156 173 141 179 185 168 140 136 136 143 150 148 163 178
449 166 208 292 356 73 108 237 151 122 179 174 145 135 126 128 128 127 139 144 155 185
243 257 283 266 106 208 137 114 107 136 149 123 117 120 114 114 135 144 148 161 182 201
270 292 271 180 227 71 138 116 111 128 122 121 113 110 107 110 137 155 159 182 186 204
272 310 296 109 78 101 112 111 108 109 113 127 123 123 119 139 165 177 180 193 204 188
167 141 102 100 88 108 111 94 103 109 115 127 140 140 161 178 226 255 234 211 187 157
156 128 146 153 146 120 115 111 111 126 125 135 147 153 166 187 245 305 282 274 258 224
Wind_Speed
12 12 9 8 6 7 10 13 12 14 20 24 33 27 36 44 49 50 50 50 49 49
12 12 11 10 9 12 14 13 15 21 25 36 27 33 39 46 50 50 50 49 48 50
12 11 11 12 13 12 13 15 19 26 33 31 36 40 45 49 49 51 50 49 49 50
10 10 10 17 11 10 14 17 23 33 39 36 44 47 49 49 51 52 50 49 50 53
8 7 11 10 8 11 15 28 25 32 37 44 47 50 51 52 53 52 53 52 51 54
14 10 8 12 9 18 26 34 33 39 43 47 52 53 53 53 54 54 53 50 51 57
15 13 15 19 22 33 33 35 39 43 47 52 55 54 54 55 56 54 51 50 53 55
14 15 18 26 32 36 33 37 45 48 53 55 54 55 57 58 57 55 55 55 55 56
18 20 17 28 37 35 41 46 52 54 53 54 55 56 59 60 61 59 62 64 62 61
16 19 27 34 32 43 48 58 53 52 53 56 57 60 62 63 64 65 66 66 66 65
20 26 30 34 47 49 53 53 54 55 55 58 60 62 64 67 68 69 69 67 66 67
24 29 38 48 50 53 54 55 56 56 58 61 64 64 67 69 73 74 73 70 67 67
29 39 45 50 51 52 53 56 58 60 61 63 68 68 69 73 77 80 79 74 72 69
40 45 49 50 52 56 60 63 66 70 70 73 75 78 78 80 82 82 83 80 75 68
Wind_Direction
262 269 261 257 257 260 298 321 335 337 340 341 344 340 340 337 337 338 337 337 338 339
256 250 240 258 277 304 320 336 345 342 336 332 337 340 338 336 335 335 336 336 336 336
247 241 260 286 303 319 331 345 337 343 342 335 333 335 335 333 334 334 334 334 333 333
266 265 285 296 313 333 339 333 331 321 331 327 330 331 331 331 332 331 330 330 330 330
305 297 304 301 328 341 335 330 330 329 332 331 331 330 329 328 329 328 327 327 327 328
320 315 336 314 306 330 332 331 331 334 332 331 330 329 328 327 327 326 325 325 326 326
322 332 334 332 314 330 337 339 336 335 333 332 331 331 330 329 328 327 326 325 325 325
341 341 336 324 333 341 341 337 333 333 331 332 333 333 333 331 330 328 326 325 323 323
345 337 350 335 335 336 333 334 332 329 330 332 333 333 332 331 329 327 324 322 322 322
355 348 341 338 337 334 330 329 330 331 331 331 331 332 331 330 328 325 323 322 321 321
357 348 346 341 333 330 331 331 331 331 331 331 331 331 331 330 328 325 322 321 319 319
354 346 338 333 332 332 332 332 332 332 331 330 330 330 329 329 327 325 322 321 319 317
347 339 335 335 333 334 334 333 332 330 330 328 327 327 326 325 324 322 321 320 319 318
343 340 339 339 338 337 334 333 331 329 328 327 326 325 324 323 321 318 318 317 317 318